Погода в Мариуполе

Поиск расширенной информации на нашем сайте:

Полезная информация:

Новости сайта



14.11.2019
Обновлён Долгосрочный прогноз погоды по России и другим странам хСССР на ноябрь-декабрь 2019 года.
Опубликованы прогностические карты: Предварительный прогноз на декабрь 2019 года, Предварительный прогноз на январь 2020 года, Предварительная схема синоптических процессов на декабрь 2019 г..

11.11.2019
Обновлены Долгосрочный прогноз погоды по России и другим странам хСССР на ноябрь-декабрь 2019 года и Предварительный прогноз на зиму 2019/2020 годов

04.11.2019
Опубликован Долгосрочный прогноз погоды по России и другим странам хСССР на ноябрь 2019 года
Сравнение прогнозируемой аномалии приземной температуры воздуха на ноябрь 2019 года по разным моделям
Предварительный прогноз на зиму 2019/2020 года




Погода в Мариуполе - сегодня

Время (UTC), дата Ветер
(°,м/с) 
Видим.   Явления Облачность Т
(°С)
Тd
(°С)
f(%) Тe
(°С)
Pmin
(гПа)
dP
(гПа)
Po
(мм)
O2
(г/м3)
Тmin Tmax R s Состояние
почвы
00 18.11.19 070 (В) 10 км    ясно 
+4.9 +3.9 93 +2    -0.3             
03 18.11.19 070 (В) 10 км    10/6 450 м средняя 
[St|Ac und]
+4.3 +3.8 97 +2  1026.5  -0.5  763  302          мокрая 
06 18.11.19 110 (В) 10 км    10/10 420 м 
[St]
+5.2 +4.7 97 +2  1026.8  0.3  764  301  +4         
09 18.11.19 090 (В) 10 км    10/10 450 м 
[St]
+6.1 +4.5 89 +3  1026.4  -0.4  763  300        мокрый или
старый снег
50-90% 
12 18.11.19 090 (В) 20000 м    ясно 
+8.4 +5.2 80 +7    -0.9             
15 18.11.19 050 (СВ) 20000 м    ясно 
+9 +4.4 73 +8  1025.3  -0.1             
18 18.11.19 070 (В) 20000 м    ясно 
+7.9 +2.9 71 +7  1025.7  0.4  763  298    +9       
21 18.11.19 050 (СВ) 20000 м    ясно 
+5.4 +3.7 89 +4  1026  0.2  763  301           
00 19.11.19 050 (СВ) 4000 м  дымка  ясно 
+4.7 +3.7 93 +4  1026.4  0.4  763  302           
03 19.11.19 070 (В) 4000 м  дымка  ясно 
+3.2 +2.9 98 +1  1026.9  0.4  764  304           
06 19.11.19 070 (В) 0500 м  туман  ?/?  
+1.3 +1.3 100 +1  1027.6  0.7  764  306  +1.3  +0.3      сухая 
09 19.11.19 090 (В) 0500 м  туман  ?/?  
+2.8 +2.8 100 +1  1027.8  0.2  764  304         
12 19.11.19 050 (СВ) 1000 м  дымка{туман}  10/10 330 м 
[St]
+2.2 +1.7 96 +2  1027.8  764  305           
15 19.11.19 050 (СВ) 1000 м  слаб. морось  10/10 400 м 
[St]
+2.3 +1.5 94 +2  1028.1  0.3  764  305           
18 19.11.19 090 (В) 1000 м  слаб. морось  10/10 300 м 
[St]
+2.2 +1.7 96 +2  1028.6  0.5  765  305    +2.8  0.0     
21 19.11.19 090 (В) 2000 м  дымка{морось}  10/10 360 м 
[St]
+3.1 +2.1 93 +1  1028.7  0.1  765  304           
00 20.11.19 050 (СВ) 4000 м  дымка{морось}  10/10 450 м 
[St]
+3.2 +1.9 91 +1  1028.3  -0.4  765  304           
03 20.11.19 020 (С) 4000 м  дымка  10/10 720 м 
[Sc]
+3.2 +1.9 91 +3  1028.5  0.2  765  304          полностью
покрыта
пылью 
06 20.11.19 070 (В) 20000 м    10/10 630 м 
[Sc]
+3.1 +1.3 88 1029.3  0.8  765  305  +2.2    0.0     
09 20.11.19 070 (В) 20000 м    10/10 450 м 
[Sc]
+3.4 +0.5 81 +1  1029.3  765  305        598  мокрый или
старый снег
50-90% 
12 20.11.19 070 (В) 10 км    10/10 480 м 
[Sc]
+3.4 -0.1 78 +1  1029.4  0.1  765  305        598  мокрый или
старый снег
50-90% 
15 20.11.19 070 (В) 10  10 км    9/9 570 м 
[Sc]
+3.9 -0.5 73 1030.1  0.7  766  304           
18 20.11.19 090 (В) 14-18  10 км    10/10 570 м 
[Sc]
+3.5 +0.6 81 -1  1031.3  1.2  767  305    +3.9       
21 20.11.19 090 (В) 16  20000 м    10/10 600 м 
[Sc]
+2.2 -1.2 78 -3  1032.4  1.1  768  307           
00 21.11.19 090 (В) 18-24{20}  20000 м    10/10 750 м 
[Sc]
+1.1 -3.5 71 -5  1033.2  0.7  768  309           
Время (UTC), дата Ветер
(°,м/с) 
Видим.   Явления Облачность Т
(°С)
Тd
(°С)
f(%) Тe
(°С)
Pmin
(гПа)
dP
(гПа)
Po
(мм)
O2
(г/м3)
Тmin Tmax R s Состояние
почвы

Для получения пояснительной информации подведите курсор к названию столбца.

ПОГОДА в Мариуполе - архив

Всё, что Вы хотите узнать о погоде в Мариуполе - удобно и подробно!

Выберите нужную дату (начиная с 1 января 2019* года) и нажмите кнопку "Найти".
Будут отображены архивные сводки погоды по пункту Мариуполь, начиная с указанной даты.


Отображать данные в формате CSV (для использования в таблицах Excel)


Внимание! Наш архив погоды предназначен исключительно для личного некоммерческого использования в познавательных целях. Если Вам необходимы официальные справки о состоянии погоды (для производственных, юридических, коммерческих и т.п. целей), обращайтесь в органы Росгидромета.

*Примечание: данная дата относится к архиву по метеостанциям СССР (Россия, СНГ, Балтия).
Архив по метеостанциям Зарубежной Европы и Азии (кроме Китая) хранится 10 дней, по другим регионам земного шара (Китай, Африка, Америка, Австралия, Океания) - 1 день.

Мариуполь - район местоположения метеостанции


Название, широта, долгота, высота метеостанции:
Мариуполь (город) 47°ш. 37.5°д. 70 м над ур. моря [Украина]

Дополнительная информация

В oтличие oт бoльшинства пoгoдных сайтoв мы публикуем пoдрoбную метеoинфoрмацию в детальнoм прoфессиoнальнoм фoрмате.

Характеристики температуры и влажнoсти вoздуха измеряются на высoте 2 м в тени вдали oт зданий и деревьев.
Скoрoсть ветра измеряется на высoте 10 м (на урoвне рoста челoвека скoрoсть ветра ниже в 1.5-2 раза). Если метеoстанция нахoдится в гoрoде или в лесу, тo скoрoсть ветра занижена на 2-4 м/с пo сравнению с oткрытым местoм. Скoрoсть ветра над акватoриями крупных рек и oзёр, а также на вершинах хoлмoв на 2-5 м/с выше, чем в oбычных услoвиях.
Атмoсфернoе давление в разных тoчках местнoсти мoжет значительнo oтличаться oт давления на метеoстанции, в зависимoсти oт услoвий рельефа (при пoдъёме на 10 м давление пoнижается примернo на 1 мм рт.ст.).